Weather History for Newport, AR

Change the Weather History Date:

Friday, February 1, 2013

  Actual Average (KJBR) Record (KJBR)
Temperature  
Mean Temperature 24 °F 38 °F  
Max Temperature 30 °F 48 °F 80 °F (1911)
Min Temperature 17 °F 29 °F 3 °F (1899)
Degree Days  
Heating Degree Days 42 26  
Month to date heating degree days 26  
Since 1 July heating degree days 2322  
Cooling Degree Days 0 0  
Month to date cooling degree days 0  
Year to date cooling degree days 0  
Moisture  
Dew Point 12 °F    
Average Humidity 62    
Maximum Humidity 84    
Minimum Humidity 49    
Precipitation  
Precipitation 0.00 in 0.13 in 1.91 in (1990)
Month to date precipitation 0.13  
Year to date precipitation 3.56  
Snow  
Snow 0.00 in - 2.50 in (1951)
Since 1 July snowfall  
Snow Depth -    
Sea Level Pressure  
Sea Level Pressure 30.47 in    
Wind  
Wind Speed 10 mph (NE)    
Max Wind Speed 18 mph    
Max Gust Speed 22 mph    
Visibility 10 miles    
Events      
T = Trace of Precipitation, MM = Missing Value Source: NWS Daily Summary

Daily Weather History Graph

Daily Weather History Graph

Search for Another Location

Airport:

Trip Planner

Search our weather history database for the weather conditions in past years. The results will help you decide how hot, cold, wet, or windy it might be!

Date:

Astronomy

Feb. 01, 2013 Rise Set
Actual Time 7:04 AM CST 5:32 PM CST
Civil Twilight 6:37 AM CST 5:59 PM CST
Nautical Twilight 6:07 AM CST 6:29 PM CST
Astronomical Twilight 5:37 AM CST 6:59 PM CST
Moon 11:25 PM CST (2/1) 9:51 AM CST (2/1)
Length of Visible Light 11h 21m
Length of Day
10h 28m
Waning Gibbous, 70% of the Moon is Illuminated
Feb 1
Waning Gibbous
Feb 3
Last Quarter
Feb 10
New
Feb 17
First Quarter
Feb 25
Full

Hourly Weather History & Observations

Time (CST) Temp. Windchill Dew Point Humidity Pressure Visibility Wind Dir Wind Speed Gust Speed Precip Events Conditions
12:56 AM 25.2 °F 11.6 °F 10.0 °F 53% 30.42 in 10.0 mi NNW 18.4 mph - N/A   Clear
1:56 AM 24.1 °F 12.0 °F 10.0 °F 55% 30.44 in 10.0 mi NNW 13.8 mph 21.9 mph N/A   Clear
2:56 AM 22.1 °F 9.5 °F 10.0 °F 60% 30.45 in 10.0 mi NNW 13.8 mph - N/A   Clear
4:56 AM 19.0 °F 6.1 °F 7.2 °F 60% 30.51 in 10.0 mi North 12.7 mph - N/A   Clear
5:56 AM 18.1 °F 5.6 °F 7.2 °F 62% 30.52 in 10.0 mi North 11.5 mph - N/A   Clear
6:56 AM 17.1 °F 6.6 °F 5.0 °F 59% 30.54 in 10.0 mi NNW 8.1 mph - N/A   Clear
7:56 AM 18.1 °F 7.9 °F 5.0 °F 57% 30.58 in 10.0 mi NNW 8.1 mph - N/A   Clear
8:56 AM 20.1 °F 11.3 °F 4.1 °F 50% 30.59 in 10.0 mi North 6.9 mph - N/A   Clear
9:56 AM 21.0 °F 12.4 °F 6.1 °F 53% 30.59 in 10.0 mi North 6.9 mph - N/A   Clear
10:56 AM 23.0 °F 15.8 °F 7.2 °F 51% 30.59 in 10.0 mi NNE 5.8 mph - N/A   Clear
11:56 AM 24.1 °F 19.7 °F 8.1 °F 51% 30.56 in 10.0 mi Variable 3.5 mph - N/A   Clear
12:56 PM 25.2 °F 20.9 °F 10.0 °F 53% 30.53 in 10.0 mi NE 3.5 mph - N/A   Clear
1:56 PM 27.1 °F 19.7 °F 11.1 °F 51% 30.49 in 10.0 mi ESE 6.9 mph - N/A   Clear
2:56 PM 30.0 °F 24.1 °F 13.1 °F 49% 30.46 in 10.0 mi SSE 5.8 mph - N/A   Clear
3:56 PM 30.0 °F 25.2 °F 13.1 °F 49% 30.45 in 10.0 mi Variable 4.6 mph - N/A   Clear
5:56 PM 29.1 °F 25.4 °F 17.1 °F 61% 30.41 in 10.0 mi South 3.5 mph - N/A   Clear
6:56 PM 27.1 °F 20.7 °F 21.0 °F 78% 30.38 in 10.0 mi South 5.8 mph - N/A   Clear
7:56 PM 26.1 °F 17.6 °F 20.1 °F 78% 30.38 in 10.0 mi SE 8.1 mph - N/A   Clear
8:56 PM 27.1 °F 23.2 °F 21.0 °F 78% 30.38 in 10.0 mi Variable 3.5 mph - N/A   Clear
9:56 PM 27.1 °F 23.2 °F 22.1 °F 81% 30.36 in 10.0 mi ESE 3.5 mph - N/A   Clear
10:56 PM 25.2 °F 17.3 °F 21.0 °F 84% 30.34 in 10.0 mi SE 6.9 mph - N/A   Clear
11:56 PM 25.2 °F 18.3 °F 21.0 °F 84% 30.31 in 10.0 mi SE 5.8 mph - N/A   Clear